Weather History for Kalispell, MT

Change the Weather History Date:

Thursday, August 9, 2012

  Actual Average Record
Temperature  
Mean Temperature 68 °F 66 °F  
Max Temperature 90 °F 84 °F 98 °F (2000)
Min Temperature 45 °F 48 °F 35 °F (1914)
Degree Days  
Heating Degree Days 0 2  
Month to date heating degree days 12 18  
Since 1 June heating degree days 301 311  
Since 1 July heating degree days 52 95  
Cooling Degree Days 3 3  
Month to date cooling degree days 21 27  
Year to date cooling degree days 155 110  
Since 1 June cooling degree days 155 107  
Growing Degree Days 17 (Base 50)    
Moisture  
Dew Point 47 °F    
Average Humidity 58    
Maximum Humidity 100    
Minimum Humidity 16    
Precipitation  
Precipitation 0.00 in 0.02 in 0.79 in (1953)
Month to date precipitation 0.22 0.25  
Year to date precipitation 14.43 10.87  
Snow  
Snow 0.00 in - - ()
Month to date snowfall 0.0  
Year to date snowfall 25.1  
Since 1 July snowfall 0.0  
Snow Depth 0.00 in    
Sea Level Pressure  
Sea Level Pressure 30.06 in    
Wind  
Wind Speed 3 mph (East)    
Max Wind Speed 10 mph    
Max Gust Speed 12 mph    
Visibility 10 miles    
Events      
T = Trace of Precipitation, MM = Missing Value Source: NWS Daily Summary

Daily Weather History Graph

Daily Weather History Graph

Search for Another Location

Airport:

Trip Planner

Search our weather history database for the weather conditions in past years. The results will help you decide how hot, cold, wet, or windy it might be!

Date:

Astronomy

Aug. 09, 2012 Rise Set
Actual Time 6:23 AM MDT 9:00 PM MDT
Civil Twilight 5:48 AM MDT 9:35 PM MDT
Nautical Twilight 5:03 AM MDT 10:19 PM MDT
Astronomical Twilight 4:10 AM MDT 11:11 PM MDT
Moon No Moon Rise 2:52 PM MDT (8/9)
Length of Visible Light 15h 47m
Length of Day
14h 36m
Waning Gibbous, 50% of the Moon is Illuminated
Aug 9
Waning Gibbous
Aug 9
Last Quarter
Aug 17
New
Aug 24
First Quarter
Aug 31
Full

Hourly Weather History & Observations

Time (MDT) Temp. Dew Point Humidity Pressure Visibility Wind Dir Wind Speed Gust Speed Precip Events Conditions
12:55 AM 59.0 °F 53.1 °F 81% 30.06 in 10.0 mi Calm Calm - N/A   Clear
1:55 AM 53.1 °F 51.1 °F 93% 30.09 in 10.0 mi Calm Calm - N/A   Clear
2:55 AM 51.1 °F 48.9 °F 92% 30.09 in 10.0 mi Calm Calm - N/A   Clear
3:55 AM 51.1 °F 48.9 °F 92% 30.10 in 10.0 mi Calm Calm - N/A   Clear
4:55 AM 48.0 °F 46.9 °F 96% 30.11 in 10.0 mi Calm Calm - N/A   Clear
5:55 AM 46.9 °F 46.0 °F 97% 30.12 in 10.0 mi Calm Calm - N/A   Clear
6:55 AM 48.9 °F 48.0 °F 97% 30.14 in 10.0 mi Calm Calm - N/A   Clear
7:55 AM 55.9 °F 52.0 °F 87% 30.15 in 10.0 mi Calm Calm - N/A   Clear
8:55 AM 66.0 °F 51.1 °F 59% 30.15 in 10.0 mi NE 3.5 mph - N/A   Clear
9:55 AM 70.0 °F 51.1 °F 51% 30.14 in 10.0 mi Calm Calm - N/A   Clear
10:55 AM 73.0 °F 53.1 °F 49% 30.13 in 10.0 mi East 5.8 mph - N/A   Clear
11:55 AM 77.0 °F 51.1 °F 40% 30.11 in 10.0 mi SSE 4.6 mph - N/A   Clear
12:55 PM 81.0 °F 43.0 °F 26% 30.09 in 10.0 mi Calm Calm - N/A   Clear
1:55 PM 82.9 °F 39.9 °F 22% 30.08 in 10.0 mi Calm Calm - N/A   Clear
2:55 PM 86.0 °F 41.0 °F 20% 30.06 in 10.0 mi SSE 8.1 mph - N/A   Clear
3:55 PM 82.9 °F 45.0 °F 26% 30.04 in 10.0 mi SSE 8.1 mph - N/A   Clear
4:55 PM 86.0 °F 39.9 °F 20% 30.02 in 10.0 mi East 5.8 mph - N/A   Clear
5:55 PM 87.1 °F 35.1 °F 16% 30.01 in 10.0 mi SSE 3.5 mph - N/A   Clear
6:55 PM 88.0 °F 41.0 °F 19% 29.98 in 10.0 mi NNE 10.4 mph - N/A   Clear
7:55 PM 84.0 °F 44.1 °F 25% 29.96 in 10.0 mi NNE 5.8 mph - N/A   Clear
8:55 PM 75.9 °F 46.9 °F 36% 29.96 in 10.0 mi NNW 4.6 mph - N/A   Clear
9:55 PM 69.1 °F 48.9 °F 49% 29.96 in 10.0 mi Calm Calm - N/A   Clear
10:55 PM 64.9 °F 48.0 °F 54% 29.96 in 10.0 mi Calm Calm - N/A   Clear
11:55 PM 61.0 °F 50.0 °F 67% 29.96 in 10.0 mi Calm Calm - N/A   Clear